Location: Stebbing
(51.8833°N, 0.4167°E)
Time: 05:39:21
(UTC+00:00)

Daily predictions for brighter satellites

Satellite Brightness Start Highest point End
(mag) Time Altitude Azimuth Time Altitude Azimuth Time Altitude Azimuth
SL-16 R/B 4.3 03:19:10 22° ENE 03:19:10 22° ENE 03:22:02 10° E
Cosmos 2082 Rocket 4.3 03:23:08 22° E 03:23:08 22° E 03:26:26 10° NE
USA 234 4.2 03:24:28 10° ENE 03:28:36 42° NE 03:28:36 42° NE
NOSS 3-1 (C) 4.1 03:52:29 70° E 03:52:29 70° E 04:00:18 10° SE
COSMOS 2455 4.0 04:07:00 35° SE 04:07:00 35° SE 04:10:19 10° SE
Cosmos 2360 Rocket 3.7 04:09:26 28° NNE 04:10:22 30° NE 04:15:16 10° ESE
Cosmos 2333 Rocket 3.3 04:11:00 39° NNE 04:11:33 40° NE 04:16:57 10° ESE
ATLAS 3B R/B 3.9 04:14:24 34° N 04:15:41 36° N 04:22:45 10° ENE
ACS3 Solar Sail 3.9 04:11:57 10° N 04:12:40 13° N 04:12:40 13° N
NOSS 3-4 (A) 4.3 04:23:03 38° NNE 04:23:03 38° NNE 04:27:18 10° NE
NOSS 3-4 (C) 4.3 04:23:13 38° NNE 04:23:13 38° NNE 04:27:29 10° NE
Cosmos 2219 Rocket 3.9 04:25:50 22° N 04:27:46 27° NE 04:32:30 10° E
ADEOS Rocket 4.3 04:22:30 10° N 04:27:21 36° NNW 04:27:21 36° NNW
COSMO-SKYMED 1 4.0 04:28:59 10° SE 04:32:39 33° ENE 04:32:39 33° ENE
Cosmos 2322 Rocket 3.2 04:32:25 35° N 04:34:02 42° NE 04:39:26 10° ESE
Cosmos 1937 Rocket 3.8 04:49:25 52° S 04:49:25 52° S 04:53:18 10° SSE
Cosmos 858 Rocket 4.4 04:49:23 81° NE 04:49:27 81° ENE 04:54:38 10° SSE
USA 59 Rocket 2.1 04:54:18 17° S 04:54:18 17° S 04:55:43 10° SSE
Cosmos 2237 4.4 04:53:25 56° SSW 04:53:25 56° SSW 04:58:09 10° SSE
Aureole 1 Rocket 4.5 04:53:29 50° WSW 04:53:29 50° WSW 04:59:58 10° S
Cosmos 1833 Rocket 4.2 04:55:09 23° N 04:55:09 23° N 04:57:58 10° NNE
Meteor 2-3 Rocket 4.3 04:49:11 10° S 04:54:46 58° E 05:00:20 10° NNE
Cosmos 2058 Rocket 4.0 04:54:41 27° NNE 04:56:41 46° ENE 05:00:56 10° SSE
NOSS 3-1 (A) 3.9 04:57:15 44° NW 04:59:52 85° NE 05:08:30 10° SE
COSMOS 2406 3.5 04:55:16 14° SSW 05:00:07 65° ESE 05:05:46 10° NE
SKYMED 2 3.8 04:56:35 10° SSE 05:00:14 63° SSE 05:00:14 63° SSE
SL-16 R/B 2.1 05:01:02 59° NW 05:02:11 87° WSW 05:07:52 10° SSE
Cosmos 2082 Rocket 2.0 05:05:01 65° W 05:05:38 72° WNW 05:11:16 10° NNE
CZ-4 R/B 4.3 05:02:06 10° NNE 05:06:42 58° ESE 05:11:15 10° S
ATLAS 5 CENTAUR R/B 3.5 05:10:38 14° NNE 05:10:38 14° NNE 05:11:24 10° NNE
SeaSat 1 3.6 05:04:41 10° NNE 05:07:30 28° N 05:07:30 28° N
BREEZE-M DEB (TANK) 4.4 05:12:02 32° SE 05:12:02 32° SE 05:13:40 10° E
Okean 1 4.0 05:11:24 40° NE 05:12:03 45° ENE 05:15:28 10° SSE
USA 234 3.5 05:07:22 10° ENE 05:13:46 58° N 05:15:57 40° WNW
CZ-2C R/B 4.0 05:11:18 10° N 05:13:16 22° N 05:13:16 22° N
Helios 1A Rocket 3.3 05:13:33 10° SSE 05:15:55 43° SSE 05:15:55 43° SSE
NOAA 12 4.2 05:11:45 10° NNE 05:17:04 75° ESE 05:22:20 10° S
Cosmos 2285 Rocket 4.4 05:17:03 17° NNW 05:22:05 65° ENE 05:28:27 10° SE
BREEZE-M DEB (TANK) 3.2 05:23:26 49° SSE 05:23:26 49° SSE 05:27:05 10° E
BREEZE-M DEB (TANK) 3.3 05:24:35 32° S 05:24:52 32° S 05:29:31 10° ESE
Cosmos 2278 3.6 05:24:16 41° NW 05:26:14 69° WSW 05:31:50 10° SSE
SL-4 R/B 1.9 05:28:33 55° SSE 05:28:33 55° SSE 05:31:15 10° ESE
FengYun 1-2 T 4.2 05:23:57 10° N 05:29:33 62° WNW 05:35:07 10° SSW
NOSS 8 (A) 4.4 05:33:11 63° ESE 05:33:11 63° ESE 05:35:55 10° SE
Cosmos 2221 4.1 05:30:33 10° N 05:34:18 32° ENE 05:38:01 10° SE
Cosmos 2026 Rocket 3.8 05:28:39 10° S 05:34:42 87° W 05:40:53 10° N
SL-16 R/B 4.4 05:38:38 10° N 05:41:02 13° NNE 05:43:25 10° NE
SJ-11-01 4.5 05:38:12 10° N 05:42:41 45° WNW 05:45:29 21° SW
Cosmos 841 Rocket 3.6 05:40:31 25° SW 05:43:21 52° WNW 05:48:30 10° NNE
Cosmos 405 Rocket 3.9 05:40:30 10° SSE 05:43:32 36° E 05:46:35 10° NNE
COSMOS 2455 4.2 05:50:11 20° WSW 05:50:11 20° WSW 05:53:41 10° SSW
Cosmos 2360 Rocket 2.1 05:51:12 22° NW 05:54:51 70° WSW 06:00:25 10° SSE
Cosmos 2333 Rocket 2.5 05:53:03 26° NW 05:56:01 49° WSW 06:01:31 10° S
Cosmos 1626 Rocket 3.9 05:52:27 10° S 05:56:50 66° E 06:01:12 10° NNE
Cosmos 1553 Rocket 4.0 05:50:26 10° N 05:56:50 87° W 06:03:17 10° S
SMAP 4.5 05:55:03 10° NNE 05:59:28 41° E 06:03:52 10° SSE
Cosmos 1892 Rocket 3.9 05:57:24 10° SW 06:01:34 42° WNW 06:05:47 10° N
Cosmos 1092 Rocket 3.9 05:55:25 10° SSW 06:01:39 66° WNW 06:07:52 10° N
Meteor 2-2 Rocket 4.4 05:57:01 10° NNW 06:02:34 53° W 06:08:09 10° S
Cosmos-2242 3.2 06:00:27 24° NW 06:02:38 45° W 06:06:38 10° SSW
Nadezhda 4 Rocket 4.5 05:58:53 10° SW 06:04:37 36° WNW 06:10:20 10° N
Cosmos 2237 Rocket 3.9 06:00:34 10° NNW 06:05:10 25° NE 06:09:45 10° E
Cosmos 1125 Rocket 3.8 06:01:41 11° NNW 06:06:49 67° ENE 06:12:02 10° SE
COSMO-SKYMED 1 3.2 06:04:20 10° SSW 06:08:00 30° W 06:08:59 27° WNW
ATLAS 3B R/B 3.4 06:01:38 16° NW 06:08:01 59° NE 06:15:32 10° ESE
IRS-1D 3.9 06:07:39 10° N 06:12:15 38° WNW 06:16:55 10° SW
Cosmos 2219 Rocket 2.1 06:07:32 15° NNW 06:12:22 82° WSW 06:17:59 10° SSE
Cosmos 2322 Rocket 2.6 06:14:14 18° NW 06:18:08 44° WSW 06:23:28 10° S
BREEZE-M DEB (TANK) 4.4 05:59:13 10° W 06:19:49 77° S 06:24:33 10° E
Meteor 2-6 Rocket 4.4 06:18:47 10° NNW 06:24:41 62° W 06:30:31 10° S
Cosmos 1812 Rocket 3.4 06:22:15 10° NNW 06:26:35 84° W 06:30:56 10° S
IGS 5A 3.3 06:23:03 10° N 06:27:01 62° WNW 06:30:58 10° SSW
Cosmos 2322 4.1 06:21:48 10° NNW 06:27:26 63° NE 06:33:03 10° SE
Cosmos 1484 Rocket 2.7 06:24:58 10° N 06:28:16 45° WNW 06:31:30 10° SW
Cosmos 1437 Rocket 2.3 06:29:17 10° NNW 06:32:45 88° W 06:36:13 10° S
Cosmos 192 4.3 06:28:01 10° NNW 06:32:55 69° WSW 06:37:46 10° SSE
Cosmos 2266 Rocket 4.3 06:26:43 10° S 06:33:04 76° E 06:39:23 10° NNE
Cosmos 2058 Rocket 4.2 06:31:52 15° NW 06:34:16 23° W 06:37:43 10° SW
Cosmos 1417 Rocket 4.4 06:28:36 10° NNW 06:34:45 81° W 06:40:54 10° S
Cosmos 1602 Rocket 3.6 06:30:52 10° S 06:35:19 86° E 06:39:48 10° NNE
ATLAS 2AS CENTAUR R/B 3.6 06:29:12 10° SSW 06:36:02 55° SE 06:42:41 10° NE
SL-08 ROCKET BODY 4.3 06:33:58 10° SSW 06:39:46 66° WNW 06:45:37 10° N
ARIANE 5 R/B 3.0 06:35:19 10° NNE 06:40:32 67° ESE 06:45:43 10° S
Cosmos 1743 2.2 06:37:36 10° SSW 06:40:48 62° WNW 06:44:03 10° N
COSMOS 2406 3.9 06:39:49 10° WSW 06:44:50 31° NW 06:49:54 10° NNE
SeaSat 1 4.3 06:43:18 10° N 06:45:27 13° NNW 06:47:07 11° NW
SL-16 R/B 3.7 06:42:55 13° WNW 06:45:27 17° W 06:49:02 10° SW
COSMOS 2428 2.9 06:44:02 10° NNW 06:49:46 77° ENE 06:55:29 10° SE
Cosmos 2082 Rocket 3.4 06:46:54 11° W 06:50:43 21° NNW 06:54:55 10° NNE
ATLAS 5 CENTAUR R/B 3.2 06:50:11 10° NNW 06:52:15 14° N 06:54:29 10° NE
Cosmos 2150 Rocket 4.5 06:50:32 10° NNW 06:56:00 67° ENE 07:01:23 10° SE
USA 234 3.4 06:49:56 10° ESE 06:56:27 73° NNE 07:03:01 10° WNW
MOS 1 Rocket 3.7 06:52:58 10° NNE 06:58:23 89° ESE 07:03:41 10° SSW
Cosmos 1814 Rocket 4.3 06:53:42 10° SW 06:58:46 47° WNW 07:03:55 10° NNE
CBERS-1 4.3 06:55:09 10° N 07:00:01 46° WNW 07:04:51 10° SW
Meteor 1-27 Rocket 3.8 06:57:57 10° NNW 07:03:52 84° W 07:09:36 10° S
SAR-Lupe-4 3.5 07:00:51 10° N 07:04:23 64° WNW 07:07:53 10° SSW
SL-4 R/B 3.3 07:02:48 10° W 07:05:15 20° SW 07:07:39 10° SSE
CZ-2D R/B 2.9 07:03:30 10° N 07:06:35 48° WNW 07:09:39 10° SSW
Cosmos 1570 Rocket 4.4 07:03:17 10° SSW 07:08:35 71° ESE 07:13:55 10° NNE
Cosmos 2151 3.2 07:04:52 10° SSW 07:08:48 46° WNW 07:12:48 10° N
Cosmos 1825 Rocket 3.6 07:04:31 10° S 07:08:57 86° W 07:13:24 10° N
Cosmos 2221 3.3 07:07:42 10° NNW 07:11:19 29° W 07:14:53 10° SSW
Cosmos 1758 Rocket 4.3 07:07:49 10° SW 07:11:43 30° WNW 07:15:38 10° N
CORIOLIS 4.3 07:07:57 10° N 07:13:12 55° WNW 07:18:27 10° SW
SAR-Lupe-1 4.1 07:10:26 10° N 07:14:01 59° WNW 07:17:33 10° SSW
USA 229 4.1 07:08:16 10° NW 07:15:36 79° SW 07:23:42 10° SE
USA 229 DEB 4.1 07:08:21 10° NW 07:15:41 79° SW 07:23:47 10° SE
